When you browse on this site, cookies collect data to enhance your experience and personalize the content and advertising you see.
Visit our Privacy Policy to learn more. By continuing to use the site, you agree to this use of cookies and data.
  • In Schweiz
  • Länderverzeichnis
  • Für 7 Tage
  • Wassertemperatur
  • Wetterkarte
  • Widgets
  • user-avatar
    Anmelden

    Stündliche Wetter Aylesbury

    Heute, 16 Dezember, Montag

    Zeit Temperatur Niederschläge Wind Luftdruck Luftfeuchtigkeit
    00:00 +5°C° 0 mm 3 m/S 740 mmHg 92%
    01:00 +5°C° 0.1 mm 4 m/S 740 mmHg 90%
    02:00 +5°C° 0.1 mm 4 m/S 740 mmHg 89%
    03:00 +4°C° 0.1 mm 4 m/S 740 mmHg 88%
    04:00 +4°C° 0 mm 4 m/S 740 mmHg 88%
    05:00 +4°C° 0 mm 4 m/S 740 mmHg 87%
    06:00 +4°C° 0 mm 4 m/S 740 mmHg 87%
    07:00 +4°C° 0 mm 3 m/S 741 mmHg 87%
    08:00 +4°C° 0 mm 3 m/S 741 mmHg 87%
    09:00 +4°C° 0 mm 3 m/S 742 mmHg 88%
    10:00 +4°C° 0 mm 3 m/S 742 mmHg 85%
    11:00 +5°C° 0 mm 3 m/S 742 mmHg 83%
    12:00 +7°C° 0 mm 3 m/S 742 mmHg 81%
    13:00 +7°C° 0 mm 2 m/S 742 mmHg 83%
    14:00 +6°C° 0 mm 2 m/S 742 mmHg 85%
    15:00 +6°C° 0 mm 2 m/S 741 mmHg 88%
    16:00 +6°C° 0.1 mm 2 m/S 741 mmHg 90%
    17:00 +6°C° 0.1 mm 2 m/S 741 mmHg 92%
    18:00 +6°C° 0.1 mm 2 m/S 741 mmHg 94%
    19:00 +6°C° 0.1 mm 2 m/S 741 mmHg 94%
    20:00 +6°C° 0.1 mm 2 m/S 741 mmHg 94%
    21:00 +6°C° 0.1 mm 2 m/S 741 mmHg 94%
    22:00 +7°C° 0.2 mm 1 m/S 741 mmHg 94%
    23:00 +7°C° 0.2 mm 1 m/S 740 mmHg 94%

    Morgen, 17 Dezember, Dienstag

    Zeit Temperatur Niederschläge Wind Luftdruck Luftfeuchtigkeit
    00:00 +7°C° 0.2 mm 1 m/S 740 mmHg 94%
    01:00 +7°C° 0.1 mm 1 m/S 740 mmHg 94%
    02:00 +7°C° 0.1 mm 1 m/S 740 mmHg 94%
    03:00 +7°C° 0.1 mm 1 m/S 740 mmHg 94%
    04:00 +7°C° 0 mm 1 m/S 739 mmHg 94%
    05:00 +6°C° 0 mm 1 m/S 739 mmHg 94%
    06:00 +6°C° 0 mm 1 m/S 739 mmHg 94%
    07:00 +6°C° 0 mm 1 m/S 739 mmHg 94%
    08:00 +6°C° 0 mm 1 m/S 740 mmHg 94%
    09:00 +6°C° 0 mm 1 m/S 740 mmHg 94%
    10:00 +7°C° 0 mm 1 m/S 741 mmHg 93%
    11:00 +6°C° 0 mm 2 m/S 741 mmHg 92%
    12:00 +6°C° 0 mm 2 m/S 742 mmHg 91%
    13:00 +6°C° 0 mm 2 m/S 742 mmHg 91%
    14:00 +6°C° 0 mm 2 m/S 742 mmHg 91%
    15:00 +6°C° 0 mm 2 m/S 743 mmHg 92%
    16:00 +6°C° 0 mm 2 m/S 743 mmHg 93%
    17:00 +5°C° 0 mm 2 m/S 744 mmHg 94%
    18:00 +5°C° 0 mm 2 m/S 744 mmHg 95%
    19:00 +4°C° 0 mm 2 m/S 745 mmHg 95%
    20:00 +4°C° 0 mm 2 m/S 745 mmHg 94%
    21:00 +3°C° 0 mm 2 m/S 746 mmHg 94%
    22:00 +3°C° 0 mm 2 m/S 746 mmHg 94%
    23:00 +3°C° 0 mm 2 m/S 747 mmHg 93%

    übermorgen, 18 Dezember, Mittwoch

    Zeit Temperatur Niederschläge Wind Luftdruck Luftfeuchtigkeit
    00:00 +3°C° 0 mm 1 m/S 747 mmHg 93%
    01:00 +3°C° 0 mm 1 m/S 747 mmHg 92%
    02:00 +3°C° 0 mm 1 m/S 747 mmHg 91%
    03:00 +3°C° 0 mm 1 m/S 748 mmHg 90%
    04:00 +2°C° 0 mm 2 m/S 748 mmHg 90%
    05:00 +2°C° 0 mm 2 m/S 748 mmHg 90%
    06:00 +2°C° 0 mm 2 m/S 748 mmHg 90%
    07:00 +2°C° 0 mm 3 m/S 748 mmHg 91%
    08:00 +2°C° 0 mm 3 m/S 748 mmHg 93%
    09:00 +2°C° 0 mm 3 m/S 748 mmHg 94%
    10:00 +4°C° 0 mm 4 m/S 748 mmHg 92%
    11:00 +5°C° 0 mm 4 m/S 748 mmHg 90%
    12:00 +6°C° 0 mm 5 m/S 748 mmHg 88%
    13:00 +6°C° 0 mm 5 m/S 747 mmHg 88%
    14:00 +6°C° 0 mm 5 m/S 747 mmHg 87%
    15:00 +6°C° 0 mm 5 m/S 746 mmHg 87%
    16:00 +6°C° 0 mm 5 m/S 746 mmHg 89%
    17:00 +4°C° 0 mm 6 m/S 745 mmHg 90%
    18:00 +4°C° 0 mm 7 m/S 745 mmHg 92%
    19:00 +4°C° 0 mm 7 m/S 744 mmHg 92%
    20:00 +5°C° 0 mm 7 m/S 744 mmHg 92%
    21:00 +6°C° 0 mm 7 m/S 743 mmHg 92%
    22:00 +6°C° 0 mm 7 m/S 742 mmHg 92%
    23:00 +8°C° 0 mm 7 m/S 742 mmHg 92%

    19 Dezember, Donnerstag

    Zeit Temperatur Niederschläge Wind Luftdruck Luftfeuchtigkeit
    00:00 +8°C° 0 mm 7 m/S 741 mmHg 91%
    01:00 +8°C° 0.4 mm 7 m/S 741 mmHg 92%
    02:00 +8°C° 0.4 mm 7 m/S 740 mmHg 93%
    03:00 +9°C° 0.4 mm 7 m/S 740 mmHg 94%
    04:00 +8°C° 0.3 mm 7 m/S 739 mmHg 93%
    05:00 +8°C° 0.3 mm 7 m/S 739 mmHg 93%
    06:00 +8°C° 0.3 mm 7 m/S 739 mmHg 93%
    07:00 +9°C° 1.2 mm 7 m/S 739 mmHg 93%
    08:00 +9°C° 1.2 mm 6 m/S 739 mmHg 94%
    09:00 +9°C° 1.2 mm 6 m/S 739 mmHg 95%
    10:00 +9°C° 1 mm 5 m/S 739 mmHg 95%
    11:00 +9°C° 1 mm 5 m/S 739 mmHg 95%
    12:00 +10°C° 1 mm 4 m/S 738 mmHg 95%
    13:00 +10°C° 1.5 mm 4 m/S 738 mmHg 95%
    14:00 +10°C° 1.5 mm 4 m/S 738 mmHg 94%
    15:00 +10°C° 1.5 mm 4 m/S 738 mmHg 94%
    16:00 +10°C° 0.3 mm 4 m/S 738 mmHg 95%
    17:00 +10°C° 0.3 mm 4 m/S 738 mmHg 95%
    18:00 +9°C° 0.3 mm 3 m/S 738 mmHg 95%
    19:00 +9°C° 0 mm 3 m/S 737 mmHg 96%
    20:00 +9°C° 0 mm 3 m/S 737 mmHg 97%
    21:00 +9°C° 0 mm 2 m/S 737 mmHg 97%
    22:00 +8°C° 0 mm 2 m/S 737 mmHg 97%
    23:00 +8°C° 0 mm 2 m/S 737 mmHg 97%

    20 Dezember, Freitag

    Zeit Temperatur Niederschläge Wind Luftdruck Luftfeuchtigkeit
    00:00 +9°C° 0 mm 1 m/S 736 mmHg 98%
    01:00 +9°C° 0.2 mm 1 m/S 736 mmHg 97%
    02:00 +9°C° 0.2 mm 1 m/S 736 mmHg 97%
    03:00 +9°C° 0.2 mm 1 m/S 736 mmHg 97%
    04:00 +9°C° 0 mm 1 m/S 735 mmHg 97%
    05:00 +8°C° 0 mm 1 m/S 735 mmHg 96%
    06:00 +7°C° 0 mm 2 m/S 735 mmHg 96%
    07:00 +7°C° 0 mm 2 m/S 735 mmHg 96%
    08:00 +7°C° 0 mm 2 m/S 736 mmHg 95%
    09:00 +7°C° 0 mm 2 m/S 736 mmHg 95%
    10:00 +7°C° 0 mm 2 m/S 736 mmHg 93%
    11:00 +7°C° 0 mm 3 m/S 736 mmHg 91%
    12:00 +8°C° 0 mm 3 m/S 736 mmHg 89%
    13:00 +7°C° 0 mm 3 m/S 736 mmHg 90%
    14:00 +7°C° 0 mm 3 m/S 736 mmHg 91%
    15:00 +7°C° 0 mm 2 m/S 736 mmHg 91%
    16:00 +6°C° 0 mm 2 m/S 736 mmHg 92%
    17:00 +6°C° 0 mm 2 m/S 736 mmHg 93%
    18:00 +5°C° 0 mm 2 m/S 736 mmHg 94%
    19:00 +5°C° 0 mm 2 m/S 736 mmHg 94%
    20:00 +4°C° 0 mm 2 m/S 736 mmHg 93%
    21:00 +4°C° 0 mm 2 m/S 736 mmHg 93%
    22:00 +4°C° 0 mm 2 m/S 737 mmHg 93%
    23:00 +4°C° 0 mm 2 m/S 737 mmHg 94%

    21 Dezember, Samstag

    Zeit Temperatur Niederschläge Wind Luftdruck Luftfeuchtigkeit
    00:00 +4°C° 0 mm 2 m/S 737 mmHg 94%
    01:00 +4°C° 0 mm 2 m/S 737 mmHg 94%
    02:00 +4°C° 0 mm 2 m/S 737 mmHg 94%
    03:00 +4°C° 0 mm 2 m/S 738 mmHg 94%
    04:00 +4°C° 0.1 mm 2 m/S 738 mmHg 94%
    05:00 +4°C° 0.1 mm 2 m/S 738 mmHg 94%
    06:00 +4°C° 0.1 mm 2 m/S 739 mmHg 95%
    07:00 +4°C° 0 mm 2 m/S 739 mmHg 94%
    08:00 +4°C° 0 mm 2 m/S 739 mmHg 94%
    09:00 +3°C° 0 mm 2 m/S 740 mmHg 93%
    10:00 +3°C° 0 mm 3 m/S 740 mmHg 90%
    11:00 +4°C° 0 mm 3 m/S 740 mmHg 87%
    12:00 +5°C° 0 mm 4 m/S 740 mmHg 84%
    13:00 +6°C° 0 mm 4 m/S 739 mmHg 85%
    14:00 +6°C° 0 mm 5 m/S 739 mmHg 86%
    15:00 +6°C° 0 mm 5 m/S 738 mmHg 86%
    16:00 +5°C° 0.8 mm 7 m/S 737 mmHg 88%
    17:00 +5°C° 0.8 mm 8 m/S 736 mmHg 90%
    18:00 +5°C° 0.8 mm 9 m/S 735 mmHg 91%
    19:00 +5°C° 0.3 mm 8 m/S 734 mmHg 91%
    20:00 +6°C° 0.3 mm 7 m/S 734 mmHg 91%
    21:00 +7°C° 0.3 mm 5 m/S 733 mmHg 90%
    22:00 +7°C° 0.6 mm 6 m/S 733 mmHg 90%
    23:00 +8°C° 0.6 mm 7 m/S 733 mmHg 90%
    Mehr zeigen